AKST,Max TemperatureF,Mean TemperatureF,Min TemperatureF,Max Dew PointF,MeanDew PointF,Min DewpointF,Max Humidity, Mean Humidity, Min Humidity, Max Sea Level PressureIn, Mean Sea Level PressureIn, Min Sea Level PressureIn, Max VisibilityMiles, Mean VisibilityMiles, Min VisibilityMiles, Max Wind SpeedMPH, Mean Wind SpeedMPH, Max Gust SpeedMPH,PrecipitationIn, CloudCover, Events, WindDirDegrees
2012-12-1,-25,-30,-34,-29,-30,-30,100,92,86,30.10,30.00,29.96,10,7,2,5,0,,0.00,2,,165
2012-12-2,-31,-34,-38,,,,,,,30.10,29.96,29.86,10,4,1,5,1,,0.00,3,,159
2012-12-3,-35,-38,-41,,,,,,,30.17,30.14,30.04,10,5,0,5,0,,0.00,3,Fog-Snow,173
2012-12-4,-29,-35,-41,-29,-29,-30,100,100,96,30.13,30.04,29.90,10,4,1,5,0,,0.00,6,Snow,170
2012-12-5,-18,-24,-30,-25,-29,-30,100,90,69,29.97,29.93,29.91,10,7,2,5,0,,0.00,5,Snow,156
2012-12-6,-21,-28,-34,-28,-30,-30,100,86,71,30.16,30.09,29.98,10,10,8,4,0,,0.00,1,,167
2012-12-7,-29,-32,-34,-30,-30,-30,99,98,97,30.20,30.17,30.14,10,10,8,5,0,,0.00,0,Snow,0
2012-12-8,-4,-20,-33,-10,-24,-30,99,81,71,30.16,29.95,29.53,10,9,2,0,0,,0.00,1,,-1
2012-12-9,6,1,-4,3,-1,-8,85,82,78,29.62,29.50,29.44,10,6,2,0,0,,0.02,8,Snow,-1
2012-12-10,8,4,1,5,2,-4,85,84,78,29.82,29.67,29.62,10,5,2,0,0,,0.06,8,Snow,-1
2012-12-11,9,6,2,6,0,-2,85,82,78,29.98,29.91,29.54,10,5,1,8,3,,0.02,8,Snow,189
2012-12-12,24,17,10,23,14,7,93,88,79,29.50,29.22,29.09,10,4,0,14,3,,0.24,8,Snow,331
2012-12-13,26,11,-6,24,10,-11,93,84,73,29.51,29.31,29.06,10,6,1,14,8,23,0.02,7,Snow,234
2012-12-14,68,26,-17,-7,-14,-24,85,77,5,29.48,29.45,29.42,10,7,3,8,3,,0.00,7,Snow,119
2012-12-15,-16,-26,-36,-22,-26,-30,100,79,69,29.80,29.60,29.48,10,9,5,5,0,,0.00,6,Snow,188
2012-12-16,-28,-34,-41,-30,-30,-30,98,96,94,30.02,29.95,29.81,10,6,2,0,0,,0.00,4,,-1
2012-12-17,-39,-41,-43,,,,,,,30.04,29.94,29.64,4,2,0,5,0,,0.00,4,Fog-Snow,146
2012-12-18,-20,-30,-41,-27,-29,-30,100,82,70,29.96,29.64,29.58,10,6,2,7,1,,0.00,0,Snow,324
2012-12-19,-18,-25,-33,-24,-29,-30,95,78,69,30.58,30.26,30.00,10,8,3,7,2,,0.04,6,Snow,180
2012-12-20,-32,-38,-45,,,,,,,30.77,30.71,30.60,10,2,0,6,0,,0.00,6,Fog-Snow,146
2012-12-21,-38,-42,-45,,,,,,,30.74,30.60,30.46,7,2,0,7,1,,0.00,2,Fog,165
2012-12-22,-38,-40,-43,,,,,,,30.48,30.37,30.28,8,3,0,4,0,,0.00,1,Fog-Snow,164
2012-12-23,-34,-36,-39,,,,,,,30.17,30.00,29.86,10,10,8,0,0,,0.00,0,,-1
2012-12-24,15,-10,-35,7,-14,-30,87,74,56,29.86,29.82,29.77,10,10,9,14,2,22,0.00,0,Snow,34
2012-12-25,19,9,-1,5,1,-6,84,70,49,29.79,29.71,29.67,10,10,10,16,5,,0.00,2,Snow,126
2012-12-26,4,-4,-13,-1,-11,-20,85,79,75,29.75,29.64,29.54,10,10,10,6,1,,0.00,2,Snow,340
2012-12-27,-5,-11,-17,-10,-18,-23,79,76,74,29.56,29.53,29.52,10,10,7,6,0,,0.00,2,,357
2012-12-28,0,-7,-14,-5,-13,-20,81,78,75,29.66,29.63,29.57,10,10,10,0,0,,0.00,4,Snow,-1
2012-12-29,18,4,-10,15,2,-16,90,84,77,29.60,29.45,29.34,10,10,10,9,1,,0.00,3,,350
2012-12-30,38,24,10,21,18,7,88,58,49,29.33,29.22,29.17,10,10,10,24,11,30,0.00,1,,144
2012-12-31,37,24,10,24,16,7,93,78,53,29.80,29.69,29.31,10,6,1,15,6,,0.00,2,,98